Location: *
(32.8140°S, 174.6161°E)
Time: 01:36:53
(UTC+00:00)

GOES 2 Rocket - Pass Details

Date: 10 December 2019
Orbit: 569 x 1674 km, 28.4° (Epoch: 27 January)

Event Time Altitude Azimuth Distance (km) Brightness Sun altitude
Exits shadow 15:25:57 38° 314° (NW) 934 3.4 -17.9°
Maximum altitude 15:27:11 50° 1° (N) 802 3.3 -17.7°
Drops below altitude 10° 15:32:00 10° 75° (ENE) 2,200 6.3 -17.0°
Sets 15:34:45 0° 80° (E) 3,274 7.3 -16.6°
